DW2468 Weather Reports


time (UTC)temp
C
wind
direction
speed
KPH
gust
KPH
rain 1hr
cm
rain 24hr
cm
rain mn
cm
humidity
%
barometer
mb
20260504190014 23 219 12.9 19.3 0.00 0.00 0.00 63 1007.3
20260504184526 23 227 11.3 16.1 0.00 0.00 0.00 60 1007.5
20260504183040 23 225 9.7 14.5 0.00 0.00 0.00 58 1007.4
20260504181540 23 326 0.0 8.0 0.00 0.00 0.00 55 1007.3
20260504180037 23 360 4.8 9.7 0.00 0.00 0.00 55 1007.4
20260504174533 23 304 4.8 12.9 0.00 0.00 0.00 55 1007.4
20260504173028 22 360 1.6 8.0 0.00 0.00 0.00 59 1007.5
20260504171526 21 26 8.0 14.5 0.00 0.00 0.00 60 1007.7
20260504081514 11 213 0.0 0.0 0.00 0.00 0.00 89 1006.7
20260504060107 13 213 1.6 3.2 0.00 0.00 0.00 81 1006.3
20260504050106 15 213 0.0 6.4 0.00 0.00 0.00 80 1006.7
20260504044556 15 213 0.0 6.4 0.00 0.00 0.00 79 1006.7
20260504043103 15 213 0.0 3.2 0.00 0.00 0.00 79 1006.7
20260504041600 15 213 1.6 4.8 0.00 0.00 0.00 78 1006.7
20260504040055 16 213 1.6 3.2 0.00 0.00 0.00 77 1006.8
20260504034606 17 213 4.8 6.4 0.00 0.00 0.00 76 1006.7
20260504033059 18 213 0.0 3.2 0.00 0.00 0.00 74 1006.6
20260504031605 19 213 1.6 6.4 0.00 0.00 0.00 71 1006.5
20260504030112 20 213 0.0 3.2 0.00 0.00 0.00 69 1006.4
20260504024552 21 213 0.0 8.0 0.00 0.00 0.00 67 1006.5
20260504023051 21 213 6.4 9.7 0.00 0.00 0.00 64 1006.5
20260504021549 22 208 6.4 11.3 0.00 0.00 0.00 61 1006.7
20260504020051 24 201 3.2 8.0 0.00 0.00 0.00 58 1006.7
20260504014549 25 182 0.0 11.3 0.00 0.00 0.00 54 1006.7
20260504013050 26 219 1.6 8.0 0.00 0.00 0.00 45 1006.8
20260504011545 26 217 3.2 9.7 0.00 0.00 0.00 43 1007.1
20260504010044 26 198 4.8 12.9 0.00 0.00 0.00 42 1007.4
20260504004542 26 224 1.6 11.3 0.00 0.00 0.00 44 1007.6
20260504003043 26 205 6.4 14.5 0.00 0.00 0.00 43 1007.7
20260504001539 26 218 8.0 14.5 0.00 0.00 0.00 43 1007.8
20260504000051 26 330 6.4 9.7 0.00 0.00 0.00 42 1008.0
20260503234535 26 289 4.8 14.5 0.00 0.00 0.00 45 1008.1
20260503233037 26 215 3.2 11.3 0.00 0.00 0.00 47 1008.2
20260503231529 25 225 4.8 14.5 0.00 0.00 0.00 51 1008.4
20260503230028 25 224 9.7 17.7 0.00 0.00 0.00 54 1008.5
20260503224529 25 219 6.4 12.9 0.00 0.00 0.00 53 1008.8
20260503223024 26 209 9.7 16.1 0.00 0.00 0.00 49 1009.0
20260503221521 25 315 3.2 16.1 0.00 0.00 0.00 49 1009.1
20260503220022 25 349 3.2 16.1 0.00 0.00 0.00 48 1009.1
20260503214517 25 270 6.4 17.7 0.00 0.00 0.00 51 1009.3
20260503213015 25 225 6.4 17.7 0.00 0.00 0.00 50 1009.6
20260503211514 25 207 3.2 12.9 0.00 0.00 0.00 51 1009.6
20260503210012 24 204 6.4 12.9 0.00 0.00 0.00 52 1009.9
20260503204508 24 238 8.0 17.7 0.00 0.00 0.00 54 1009.9
20260503203006 23 316 1.6 12.9 0.00 0.00 0.00 53 1010.4
20260503201504 23 220 3.2 14.5 0.00 0.00 0.00 57 1010.5
20260503200004 23 313 8.0 14.5 0.00 0.00 0.00 57 1010.6
20260503194502 24 224 8.0 19.3 0.00 0.00 0.00 61 1010.7
20260503193104 24 218 6.4 14.5 0.00 0.00 0.00 55 1010.7
20260503191558 24 249 8.0 12.9 0.00 0.00 0.00 55 1010.7